This demonstration page uses our WeatherBlox Daily Observations layout. Learn more.

Left ArrowRight Arrow

Hourly Observations for June 29, 2021

Temp ( °F °C ) Dew Point ( °F °C ) Humidity (%) Winds ( mph kmh ) Pressure ( in mb ) Visibility ( mi km ) Precip ( " mm )
12:53 am 00:53 Clear 73 22.8 71 21.7 94 94 N N/A 30.20 1023 10 16 N/A
1:53 am 01:53 Clear 72 22.2 70 21.1 94 94 N N/A 30.20 1023 10 16 N/A
2:53 am 02:53 Clear 72 22.2 71 21.7 97 97 N N/A 30.19 1022 10 16 N/A
3:53 am 03:53 Clear 71 21.7 70 21.1 96 96 N N/A 30.18 1022 9 14 N/A
4:53 am 04:53 Clear 71 21.7 70 21.1 96 96 N N/A 30.19 1022 9 14 N/A
5:53 am 05:53 Clear 70 21.1 69 20.6 97 97 N N/A 30.20 1023 7 11 0.00 0.00
6:53 am 06:53 Sunny 72 22.2 70 21.1 94 94 N N/A 30.21 1023 7 11 N/A
7:53 am 07:53 Sunny 78 25.6 73 22.8 85 85 N N/A 30.21 1023 10 16 N/A
8:53 am 08:53 Sunny 82 27.8 74 23.3 77 77 N N/A 30.22 1023 10 16 N/A
9:53 am 09:53 Sunny 86 30 73 22.8 65 65 N N/A 30.21 1023 10 16 N/A
10:53 am 10:53 Sunny 87 30.6 73 22.8 63 63 N N/A 30.20 1023 10 16 N/A
11:53 am 11:53 Sunny 90 32.2 72 22.2 56 56 N N/A 30.19 1023 10 16 N/A
12:53 pm 12:53 Mostly Sunny 92 33.3 73 22.8 54 54 N N/A 30.18 1022 10 16 N/A
1:53 pm 13:53 Mostly Cloudy 89 31.7 74 23.3 61 61 WNW 7 11 30.17 1022 10 16 N/A
2:20 pm 14:20 Mostly Cloudy with Thunderstorms 84 28.9 77 25 80 80 SSW 6 9 30.15 1021 2 3 0.05 1.27
2:23 pm 14:23 Mostly Cloudy with Strong Thunderstorms 83 28.3 76 24.4 79 79 VRB 3 6 30.15 1021 1 1 0.12 3.05
2:32 pm 14:32 Mostly Cloudy with Thunderstorms 82 27.8 72 22.2 72 72 VRB 5 7 30.14 1021 2 3 0.13 3.30
2:36 pm 14:36 Mostly Cloudy with Light Rain 85 29.4 75 23.9 72 72 VRB 7 11 30.14 1020 8 13 0.13 3.30
2:53 pm 14:53 Mostly Sunny 90 32.2 74 23.3 59 59 WNW 6 9 30.14 1021 10 16 0.13 3.30
3:53 pm 15:53 Mostly Sunny 93 33.9 74 23.3 54 54 VRB 3 6 30.12 1020 10 16 N/A
4:53 pm 16:53 Mostly Sunny 91 32.8 73 22.8 56 56 WSW 6 9 30.11 1020 10 16 N/A
5:16 pm 17:16 Mostly Cloudy with Nearby Thunderstorms 89 31.7 77 25 68 68 SSW 3 6 30.08 1019 10 16 0.00 0.00
5:31 pm 17:31 Partly Cloudy with Thunderstorms 88 31.1 76 24.4 68 68 N N/A 30.08 1019 10 16 0.00 0.00
5:47 pm 17:47 Mostly Cloudy with Strong Thunderstorms 82 28 75 24 79 79 WSW 5 7 30.09 1019 2 3 0.04 1.02
5:53 pm 17:53 Mostly Cloudy with Nearby Thunderstorms 81 27.2 77 25 88 88 SW 5 7 30.11 1020 3 4 0.04 1.02
5:55 pm 17:55 Mostly Cloudy with Light Rain 80 26.7 77 25 90 90 WSW 3 6 30.09 1019 5 8 0.00 0.00
6:02 pm 18:02 Mostly Cloudy with Nearby Thunderstorms 82 27.8 77 25 85 85 N N/A 30.09 1019 9 14 0.00 0.00
6:24 pm 18:24 Sunny 86 30 79 26.1 80 80 N N/A 30.08 1019 10 16 0.00 0.00
6:36 pm 18:36 Sunny with Nearby Thunderstorms 88 31.1 78 25.6 73 73 N N/A 30.08 1019 10 16 0.00 0.00
6:53 pm 18:53 Sunny with Nearby Thunderstorms 87 30.6 82 27.8 85 85 N N/A 30.10 1019 10 16 0.00 0.00
7:02 pm 19:02 Sunny with Thunderstorms 86 30 82 27.8 88 88 E 3 6 30.08 1019 10 16 N/A
7:46 pm 19:46 Cloudy with Strong Thunderstorms 77 25 72 22.2 85 85 VRB 3 6 30.14 1021 2 2 0.08 2.03
7:53 pm 19:53 Cloudy with Strong Thunderstorms 76 24.4 73 22.8 91 91 E 9 15 30.14 1021 1 1 0.20 5.08
8:00 pm 20:00 Cloudy with Strong Thunderstorms 77 25 72 22.2 85 85 E 12 19 30.13 1020 2 3 0.04 1.02
8:04 pm 20:04 Cloudy with Thunderstorms 77 25 73 22.8 88 88 E 10 17 30.13 1020 3 5 0.05 1.27
8:39 pm 20:39 Mostly Cloudy with Nearby Thunderstorms 76 24.4 74 23.3 94 94 WNW 7 11 30.14 1021 8 13 0.07 1.78
8:53 pm 20:53 Mostly Cloudy with Light Rain 75 23.9 74 23.3 96 96 N N/A 30.15 1021 9 14 0.07 1.78
9:28 pm 21:28 Cloudy with Nearby Thunderstorms 76 24.4 74 23.3 94 94 N N/A 30.15 1021 8 13 0.00 0.00
9:53 pm 21:53 Mostly Cloudy with Mist and Fog 75 23.9 74 23.3 96 96 VRB 3 6 30.15 1021 6 10 0.00 0.00
10:05 pm 22:05 Mostly Clear with Nearby Thunderstorms 75 23.9 74 23.3 96 96 N N/A 30.14 1021 9 14 N/A
10:25 pm 22:25 Clear 75 23.9 73 22.8 94 94 N N/A 30.15 1021 10 16 N/A
10:53 pm 22:53 Clear 74 23.3 73 22.8 97 97 N N/A 30.16 1021 8 13 N/A
11:53 pm 23:53 Mostly Cloudy with Mist and Fog 75 23.9 73 22.8 94 94 N N/A 30.16 1021 6 10 N/A

Powered by AerisWeather